Time,TemperatureF,DewpointF,PressureIn,WindDirection,WindDirectionDegrees,WindSpeedMPH,WindSpeedGustMPH,Humidity,HourlyPrecipIn,Conditions,Clouds,dailyrainin,SolarRadiationWatts/m^2,SoftwareType,DateUTC
2013-06-23 00:05:00,83.8,51.6,29.85,NE,51,0.0,0.0,33,0.00,,,0.00,0,Wunderground v.1.15,2013-06-22 21:05:00,
2013-06-23 00:16:00,83.4,51.3,29.85,NE,51,0.0,0.0,33,0.00,,,0.00,0,Wunderground v.1.15,2013-06-22 21:16:00,
2013-06-23 00:25:00,82.9,51.6,29.85,NE,51,0.0,0.0,34,0.00,,,0.00,0,Wunderground v.1.15,2013-06-22 21:25:00,
2013-06-23 00:35:00,82.5,52.9,29.85,NE,51,0.0,0.0,36,0.00,,,0.00,0,Wunderground v.1.15,2013-06-22 21:35:00,
2013-06-23 00:46:00,82.1,56.1,29.85,NE,51,0.0,0.0,41,0.00,,,0.00,0,Wunderground v.1.15,2013-06-22 21:46:00,
2013-06-23 00:55:00,81.9,55.2,29.85,NE,51,0.0,0.0,40,0.00,,,0.00,0,Wunderground v.1.15,2013-06-22 21:55:00,
2013-06-23 01:05:00,81.8,55.1,29.84,NE,51,0.0,0.0,40,0.00,,,0.00,0,Wunderground v.1.15,2013-06-22 22:05:00,
2013-06-23 01:15:00,81.9,55.2,29.84,NE,51,0.0,0.0,40,0.00,,,0.00,0,Wunderground v.1.15,2013-06-22 22:15:00,
2013-06-23 01:25:00,81.8,55.1,29.84,NE,51,0.0,0.0,40,0.00,,,0.00,0,Wunderground v.1.15,2013-06-22 22:25:00,
2013-06-23 01:35:00,81.5,59.9,29.84,NE,51,0.0,0.0,48,0.00,,,0.00,0,Wunderground v.1.15,2013-06-22 22:35:00,
2013-06-23 01:46:00,80.0,60.8,29.85,NE,51,0.0,0.0,52,0.00,,,0.00,0,Wunderground v.1.15,2013-06-22 22:46:00,
2013-06-23 01:55:00,79.4,59.1,29.84,NE,51,0.0,0.0,50,0.00,,,0.00,0,Wunderground v.1.15,2013-06-22 22:55:00,
2013-06-23 02:05:00,79.4,58.0,29.85,NE,51,0.0,0.0,48,0.00,,,0.00,0,Wunderground v.1.15,2013-06-22 23:05:00,
2013-06-23 02:15:00,79.5,56.9,29.84,NE,51,0.0,0.0,46,0.00,,,0.00,0,Wunderground v.1.15,2013-06-22 23:15:00,
2013-06-23 02:25:00,79.5,58.7,29.84,NE,51,0.0,0.0,49,0.00,,,0.00,0,Wunderground v.1.15,2013-06-22 23:25:00,
2013-06-23 02:35:00,78.9,59.2,29.84,NE,51,0.0,0.0,51,0.00,,,0.00,0,Wunderground v.1.15,2013-06-22 23:35:00,
2013-06-23 02:45:00,78.5,58.9,29.85,NE,51,0.0,0.0,51,0.00,,,0.00,0,Wunderground v.1.15,2013-06-22 23:45:00,
2013-06-23 02:55:00,78.4,58.8,29.84,NE,51,0.0,0.0,51,0.00,,,0.00,0,Wunderground v.1.15,2013-06-22 23:55:00,
2013-06-23 03:05:00,78.3,58.7,29.84,NE,51,0.0,0.0,51,0.00,,,0.00,0,Wunderground v.1.15,2013-06-23 00:05:00,
2013-06-23 03:16:00,78.3,58.7,29.84,NE,51,0.0,0.0,51,0.00,,,0.00,0,Wunderground v.1.15,2013-06-23 00:16:00,
2013-06-23 03:25:00,78.2,57.5,29.84,NE,51,0.0,0.0,49,0.00,,,0.00,0,Wunderground v.1.15,2013-06-23 00:25:00,
2013-06-23 03:35:00,78.4,57.7,29.83,NE,51,0.0,0.0,49,0.00,,,0.00,0,Wunderground v.1.15,2013-06-23 00:35:00,
2013-06-23 03:45:00,78.5,57.2,29.83,NE,51,0.0,0.0,48,0.00,,,0.00,0,Wunderground v.1.15,2013-06-23 00:45:00,
2013-06-23 03:55:00,78.7,57.4,29.83,NE,51,0.0,0.0,48,0.00,,,0.00,0,Wunderground v.1.15,2013-06-23 00:55:00,
2013-06-23 04:05:00,78.9,55.8,29.83,NE,51,0.0,0.0,45,0.00,,,0.00,0,Wunderground v.1.15,2013-06-23 01:05:00,
2013-06-23 04:15:00,78.9,55.8,29.83,NE,51,0.0,0.0,45,0.00,,,0.00,0,Wunderground v.1.15,2013-06-23 01:15:00,
2013-06-23 04:25:00,78.8,55.0,29.84,NE,51,1.0,1.0,44,0.00,,,0.00,0,Wunderground v.1.15,2013-06-23 01:25:00,
2013-06-23 04:35:00,78.8,55.0,29.84,NE,51,0.0,0.0,44,0.00,,,0.00,0,Wunderground v.1.15,2013-06-23 01:35:00,
2013-06-23 04:46:00,78.8,55.0,29.83,NE,51,0.0,0.0,44,0.00,,,0.00,0,Wunderground v.1.15,2013-06-23 01:46:00,
2013-06-23 04:55:00,79.0,55.2,29.84,NE,51,1.0,2.0,44,0.00,,,0.00,0,Wunderground v.1.15,2013-06-23 01:55:00,
2013-06-23 05:05:00,78.9,55.1,29.84,NE,51,0.0,0.0,44,0.00,,,0.00,0,Wunderground v.1.15,2013-06-23 02:05:00,
2013-06-23 05:15:00,78.8,55.0,29.84,NE,51,0.0,0.0,44,0.00,,,0.00,0,Wunderground v.1.15,2013-06-23 02:15:00,
2013-06-23 05:25:00,78.6,54.9,29.84,NE,51,0.0,0.0,44,0.00,,,0.00,0,Wunderground v.1.15,2013-06-23 02:25:00,
2013-06-23 05:35:00,78.6,54.9,29.84,NE,51,0.0,0.0,44,0.00,,,0.00,0,Wunderground v.1.15,2013-06-23 02:35:00,
2013-06-23 05:46:00,78.7,55.0,29.84,NE,51,0.0,0.0,44,0.00,,,0.00,0,Wunderground v.1.15,2013-06-23 02:46:00,
2013-06-23 05:55:00,78.7,55.6,29.84,NE,51,0.0,0.0,45,0.00,,,0.00,0,Wunderground v.1.15,2013-06-23 02:55:00,
2013-06-23 06:05:00,78.5,55.4,29.84,NE,51,1.0,1.0,45,0.00,,,0.00,5,Wunderground v.1.15,2013-06-23 03:05:00,
2013-06-23 06:16:00,78.6,55.5,29.83,NE,51,1.0,1.0,45,0.00,,,0.00,11,Wunderground v.1.15,2013-06-23 03:16:00,
2013-06-23 06:25:00,78.7,55.0,29.83,NE,51,1.0,2.0,44,0.00,,,0.00,16,Wunderground v.1.15,2013-06-23 03:25:00,
2013-06-23 06:35:00,78.9,55.1,29.83,NE,51,0.0,0.0,44,0.00,,,0.00,32,Wunderground v.1.15,2013-06-23 03:35:00,
2013-06-23 06:46:00,79.3,54.2,29.83,NE,51,1.0,2.0,42,0.00,,,0.00,49,Wunderground v.1.15,2013-06-23 03:46:00,
2013-06-23 06:55:00,79.7,53.9,29.83,NE,51,1.0,1.0,41,0.00,,,0.00,74,Wunderground v.1.15,2013-06-23 03:55:00,
2013-06-23 07:05:00,80.2,53.0,29.83,NE,51,0.0,0.0,39,0.00,,,0.00,104,Wunderground v.1.15,2013-06-23 04:05:00,
2013-06-23 07:15:00,80.8,52.8,29.83,NE,51,0.0,0.0,38,0.00,,,0.00,134,Wunderground v.1.15,2013-06-23 04:15:00,
2013-06-23 07:25:00,81.6,51.3,29.83,NE,51,0.0,0.0,35,0.00,,,0.00,158,Wunderground v.1.15,2013-06-23 04:25:00,
2013-06-23 07:35:00,82.6,52.2,29.83,NE,51,0.0,0.0,35,0.00,,,0.00,186,Wunderground v.1.15,2013-06-23 04:35:00,
2013-06-23 07:46:00,83.0,52.5,29.83,NE,51,0.0,0.0,35,0.00,,,0.00,216,Wunderground v.1.15,2013-06-23 04:46:00,
2013-06-23 07:55:00,83.2,51.9,29.83,NE,51,1.0,1.0,34,0.00,,,0.00,243,Wunderground v.1.15,2013-06-23 04:55:00,
2013-06-23 08:05:00,83.5,53.0,29.83,NE,51,1.0,1.0,35,0.00,,,0.00,272,Wunderground v.1.15,2013-06-23 05:05:00,
2013-06-23 08:16:00,84.1,52.7,29.83,NE,51,1.0,1.0,34,0.00,,,0.00,301,Wunderground v.1.15,2013-06-23 05:16:00,
2013-06-23 08:25:00,84.8,52.5,29.83,NE,51,0.0,0.0,33,0.00,,,0.00,329,Wunderground v.1.15,2013-06-23 05:25:00,
2013-06-23 08:35:00,85.7,52.4,29.83,NE,51,0.0,3.0,32,0.00,,,0.00,359,Wunderground v.1.15,2013-06-23 05:35:00,
2013-06-23 08:46:00,86.1,52.8,29.83,NE,51,0.0,2.0,32,0.00,,,0.00,388,Wunderground v.1.15,2013-06-23 05:46:00,
2013-06-23 08:55:00,85.9,52.6,29.83,NE,51,0.0,1.0,32,0.00,,,0.00,413,Wunderground v.1.15,2013-06-23 05:55:00,
2013-06-23 09:05:00,86.5,52.3,29.83,NE,51,0.0,1.0,31,0.00,,,0.00,445,Wunderground v.1.15,2013-06-23 06:05:00,
2013-06-23 09:15:00,86.8,53.4,29.83,NE,51,1.0,1.0,32,0.00,,,0.00,471,Wunderground v.1.15,2013-06-23 06:15:00,
2013-06-23 09:25:00,86.4,53.1,29.83,NE,51,2.0,2.0,32,0.00,,,0.00,499,Wunderground v.1.15,2013-06-23 06:25:00,
2013-06-23 09:35:00,86.5,54.8,29.83,NE,51,1.0,1.0,34,0.00,,,0.00,527,Wunderground v.1.15,2013-06-23 06:35:00,
2013-06-23 09:46:00,87.2,58.5,29.83,NE,51,1.0,1.0,38,0.00,,,0.00,552,Wunderground v.1.15,2013-06-23 06:46:00,
2013-06-23 09:55:00,86.7,58.1,29.83,NE,51,1.0,3.0,38,0.00,,,0.00,580,Wunderground v.1.15,2013-06-23 06:55:00,
2013-06-23 10:05:00,86.5,58.6,29.83,NE,51,1.0,1.0,39,0.00,,,0.00,608,Wunderground v.1.15,2013-06-23 07:05:00,
2013-06-23 10:16:00,87.5,58.8,29.83,NE,51,1.0,1.0,38,0.00,,,0.00,631,Wunderground v.1.15,2013-06-23 07:16:00,
2013-06-23 10:25:00,88.2,57.1,29.83,ENE,59,2.0,5.0,35,0.00,,,0.00,656,Wunderground v.1.15,2013-06-23 07:25:00,
2013-06-23 10:35:00,89.5,58.2,29.83,NE,44,3.0,4.0,35,0.00,,,0.00,680,Wunderground v.1.15,2013-06-23 07:35:00,
2013-06-23 10:46:00,90.1,58.8,29.83,NE,44,3.0,7.0,35,0.00,,,0.00,707,Wunderground v.1.15,2013-06-23 07:46:00,
2013-06-23 10:51:00,89.9,59.4,29.83,NE,34,4.0,7.0,36,0.00,,,0.00,715,Wunderground v.1.15,2013-06-23 07:51:00,
2013-06-23 11:05:00,89.9,58.6,29.82,ENE,63,6.0,8.0,35,0.00,,,0.00,747,Wunderground v.1.15,2013-06-23 08:05:00,
2013-06-23 11:15:00,90.3,59.7,29.82,NE,49,7.0,7.0,36,0.00,,,0.00,765,Wunderground v.1.15,2013-06-23 08:15:00,
2013-06-23 11:25:00,91.3,59.8,29.82,NE,46,4.0,4.0,35,0.00,,,0.00,784,Wunderground v.1.15,2013-06-23 08:25:00,
2013-06-23 11:35:00,91.2,59.7,29.82,ENE,60,5.0,5.0,35,0.00,,,0.00,803,Wunderground v.1.15,2013-06-23 08:35:00,
2013-06-23 11:46:00,91.1,61.2,29.82,ENE,60,1.0,1.0,37,0.00,,,0.00,817,Wunderground v.1.15,2013-06-23 08:46:00,
2013-06-23 11:55:00,89.6,64.1,29.82,NE,55,2.0,2.0,43,0.00,,,0.00,830,Wunderground v.1.15,2013-06-23 08:55:00,
2013-06-23 12:05:00,88.2,64.8,29.82,East,80,2.0,2.0,46,0.00,,,0.00,844,Wunderground v.1.15,2013-06-23 09:05:00,
2013-06-23 12:16:00,86.8,64.8,29.82,East,80,2.0,3.0,48,0.00,,,0.00,856,Wunderground v.1.15,2013-06-23 09:16:00,
2013-06-23 12:25:00,86.4,66.7,29.82,East,81,2.0,2.0,52,0.00,,,0.00,872,Wunderground v.1.15,2013-06-23 09:25:00,
2013-06-23 12:35:00,87.4,66.5,29.82,ESE,108,2.0,4.0,50,0.00,,,0.00,879,Wunderground v.1.15,2013-06-23 09:35:00,
2013-06-23 12:41:00,86.9,66.6,29.82,ESE,117,3.0,5.0,51,0.00,,,0.00,884,Wunderground v.1.15,2013-06-23 09:41:00,
2013-06-23 12:55:00,84.7,66.2,29.82,SSE,163,6.0,9.0,54,0.00,,,0.00,888,Wunderground v.1.15,2013-06-23 09:55:00,
2013-06-23 13:05:00,84.7,62.8,29.82,South,171,6.0,6.0,48,0.00,,,0.00,886,Wunderground v.1.15,2013-06-23 10:05:00,
2013-06-23 13:16:00,85.1,62.0,29.82,South,173,5.0,5.0,46,0.00,,,0.00,896,Wunderground v.1.15,2013-06-23 10:16:00,
2013-06-23 13:25:00,85.8,61.4,29.82,South,176,4.0,4.0,44,0.00,,,0.00,893,Wunderground v.1.15,2013-06-23 10:25:00,
2013-06-23 13:35:00,86.9,59.0,29.82,South,178,4.0,5.0,39,0.00,,,0.00,893,Wunderground v.1.15,2013-06-23 10:35:00,
2013-06-23 13:46:00,87.9,59.8,29.82,South,180,3.0,3.0,39,0.00,,,0.00,895,Wunderground v.1.15,2013-06-23 10:46:00,
2013-06-23 13:55:00,88.5,59.7,29.82,South,180,3.0,5.0,38,0.00,,,0.00,891,Wunderground v.1.15,2013-06-23 10:55:00,
2013-06-23 14:05:00,88.8,60.7,29.81,South,180,2.0,6.0,39,0.00,,,0.00,886,Wunderground v.1.15,2013-06-23 11:05:00,
2013-06-23 14:16:00,88.6,61.2,29.81,South,182,3.0,6.0,40,0.00,,,0.00,884,Wunderground v.1.15,2013-06-23 11:16:00,
2013-06-23 14:25:00,88.2,63.5,29.81,South,182,3.0,3.0,44,0.00,,,0.00,877,Wunderground v.1.15,2013-06-23 11:25:00,
2013-06-23 14:35:00,88.1,61.4,29.81,South,188,3.0,3.0,41,0.00,,,0.00,868,Wunderground v.1.15,2013-06-23 11:35:00,
2013-06-23 14:46:00,88.2,60.8,29.81,SSW,193,4.0,4.0,40,0.00,,,0.00,858,Wunderground v.1.15,2013-06-23 11:46:00,
2013-06-23 14:55:00,88.9,60.7,29.80,SSW,194,3.0,3.0,39,0.00,,,0.00,849,Wunderground v.1.15,2013-06-23 11:55:00,
2013-06-23 15:05:00,89.5,60.5,29.80,SSW,194,2.0,2.0,38,0.00,,,0.00,838,Wunderground v.1.15,2013-06-23 12:05:00,
2013-06-23 15:15:00,89.8,60.8,29.80,SSW,195,3.0,4.0,38,0.00,,,0.00,821,Wunderground v.1.15,2013-06-23 12:15:00,
2013-06-23 15:25:00,89.6,62.1,29.80,SSW,196,3.0,3.0,40,0.00,,,0.00,812,Wunderground v.1.15,2013-06-23 12:25:00,
2013-06-23 15:35:00,90.0,61.7,29.79,SSW,196,3.0,3.0,39,0.00,,,0.00,791,Wunderground v.1.15,2013-06-23 12:35:00,
2013-06-23 15:46:00,89.7,62.9,29.79,SSW,199,3.0,4.0,41,0.00,,,0.00,770,Wunderground v.1.15,2013-06-23 12:46:00,
2013-06-23 15:56:00,89.9,63.0,29.79,SSW,199,2.0,4.0,41,0.00,,,0.00,754,Wunderground v.1.15,2013-06-23 12:56:00,
2013-06-23 16:05:00,89.7,64.2,29.78,SSW,201,2.0,7.0,43,0.00,,,0.00,737,Wunderground v.1.15,2013-06-23 13:05:00,
2013-06-23 16:16:00,88.7,65.3,29.78,SSW,201,3.0,3.0,46,0.00,,,0.00,714,Wunderground v.1.15,2013-06-23 13:16:00,
2013-06-23 16:26:00,89.2,65.7,29.78,SSW,201,3.0,3.0,46,0.00,,,0.00,691,Wunderground v.1.15,2013-06-23 13:26:00,
2013-06-23 16:35:00,89.2,66.3,29.78,SSW,201,2.0,4.0,47,0.00,,,0.00,670,Wunderground v.1.15,2013-06-23 13:35:00,
2013-06-23 16:46:00,89.0,66.2,29.78,SSW,205,3.0,8.0,47,0.00,,,0.00,649,Wunderground v.1.15,2013-06-23 13:46:00,
2013-06-23 16:55:00,88.9,66.7,29.78,SSW,206,3.0,8.0,48,0.00,,,0.00,619,Wunderground v.1.15,2013-06-23 13:55:00,
2013-06-23 17:05:00,87.0,67.2,29.78,SSW,209,4.0,4.0,52,0.00,,,0.00,591,Wunderground v.1.15,2013-06-23 14:05:00,
2013-06-23 17:16:00,86.6,67.4,29.77,SSW,209,3.0,3.0,53,0.00,,,0.00,575,Wunderground v.1.15,2013-06-23 14:16:00,
2013-06-23 17:25:00,86.8,65.9,29.78,SSW,209,3.0,4.0,50,0.00,,,0.00,540,Wunderground v.1.15,2013-06-23 14:25:00,
2013-06-23 17:35:00,86.5,63.9,29.78,SSW,209,3.0,4.0,47,0.00,,,0.00,520,Wunderground v.1.15,2013-06-23 14:35:00,
2013-06-23 17:46:00,87.4,64.7,29.78,SSW,209,2.0,2.0,47,0.00,,,0.00,492,Wunderground v.1.15,2013-06-23 14:46:00,
2013-06-23 17:55:00,86.6,65.7,29.78,SSW,210,4.0,4.0,50,0.00,,,0.00,448,Wunderground v.1.15,2013-06-23 14:55:00,
2013-06-23 18:05:00,85.5,65.9,29.78,SSW,211,4.0,4.0,52,0.00,,,0.00,429,Wunderground v.1.15,2013-06-23 15:05:00,
2013-06-23 18:16:00,84.2,66.8,29.78,SSW,211,5.0,5.0,56,0.00,,,0.00,394,Wunderground v.1.15,2013-06-23 15:16:00,
2013-06-23 18:25:00,83.9,68.0,29.78,SSW,212,3.0,3.0,59,0.00,,,0.00,322,Wunderground v.1.15,2013-06-23 15:25:00,
2013-06-23 18:35:00,83.5,68.2,29.78,SSW,212,3.0,3.0,60,0.00,,,0.00,151,Wunderground v.1.15,2013-06-23 15:35:00,
2013-06-23 18:46:00,82.5,68.6,29.78,SSW,212,4.0,4.0,63,0.00,,,0.00,183,Wunderground v.1.15,2013-06-23 15:46:00,
2013-06-23 19:05:00,81.4,68.1,29.78,SSW,212,3.0,6.0,64,0.00,,,0.00,86,Wunderground v.1.15,2013-06-23 16:05:00,
2013-06-23 19:16:00,81.1,67.8,29.77,SSW,212,2.0,5.0,64,0.00,,,0.00,72,Wunderground v.1.15,2013-06-23 16:16:00,
2013-06-23 19:25:00,81.1,67.3,29.77,SSW,212,2.0,2.0,63,0.00,,,0.00,76,Wunderground v.1.15,2013-06-23 16:25:00,
2013-06-23 19:35:00,81.4,66.7,29.77,SSW,212,2.0,2.0,61,0.00,,,0.00,79,Wunderground v.1.15,2013-06-23 16:35:00,
2013-06-23 19:45:00,81.4,66.7,29.77,SSW,212,1.0,1.0,61,0.00,,,0.00,72,Wunderground v.1.15,2013-06-23 16:45:00,
2013-06-23 19:55:00,81.7,66.0,29.77,SSW,212,0.0,0.0,59,0.00,,,0.00,54,Wunderground v.1.15,2013-06-23 16:55:00,
2013-06-23 20:05:00,81.8,66.1,29.77,SSW,212,0.0,0.0,59,0.00,,,0.00,42,Wunderground v.1.15,2013-06-23 17:05:00,
2013-06-23 20:16:00,81.9,65.7,29.77,SSW,212,0.0,1.0,58,0.00,,,0.00,26,Wunderground v.1.15,2013-06-23 17:16:00,
2013-06-23 20:26:00,81.7,65.0,29.78,SSW,212,1.0,1.0,57,0.00,,,0.00,14,Wunderground v.1.15,2013-06-23 17:26:00,
2013-06-23 20:35:00,81.5,65.3,29.78,SSW,212,0.0,0.0,58,0.00,,,0.00,11,Wunderground v.1.15,2013-06-23 17:35:00,
2013-06-23 20:46:00,81.3,65.1,29.77,SSW,212,0.0,1.0,58,0.00,,,0.00,0,Wunderground v.1.15,2013-06-23 17:46:00,
2013-06-23 20:55:00,80.8,65.6,29.78,SSW,212,1.0,1.0,60,0.00,,,0.00,0,Wunderground v.1.15,2013-06-23 17:55:00,
2013-06-23 21:05:00,80.7,65.0,29.78,SSW,212,1.0,1.0,59,0.00,,,0.00,0,Wunderground v.1.15,2013-06-23 18:05:00,
2013-06-23 21:16:00,80.6,64.9,29.78,SSW,212,0.0,1.0,59,0.00,,,0.00,0,Wunderground v.1.15,2013-06-23 18:16:00,
2013-06-23 21:25:00,80.5,63.9,29.78,SSW,212,1.0,1.0,57,0.00,,,0.00,0,Wunderground v.1.15,2013-06-23 18:25:00,
2013-06-23 21:35:00,80.5,64.4,29.79,SSW,212,0.0,0.0,58,0.00,,,0.00,0,Wunderground v.1.15,2013-06-23 18:35:00,
2013-06-23 21:46:00,80.6,64.0,29.79,SSW,212,0.0,0.0,57,0.00,,,0.00,0,Wunderground v.1.15,2013-06-23 18:46:00,
2013-06-23 21:55:00,80.6,64.5,29.80,SSW,212,0.0,0.0,58,0.00,,,0.00,0,Wunderground v.1.15,2013-06-23 18:55:00,
2013-06-23 22:06:00,80.4,64.8,29.80,SSW,212,0.0,0.0,59,0.00,,,0.00,0,Wunderground v.1.15,2013-06-23 19:06:00,
2013-06-23 22:16:00,80.2,65.1,29.80,SSW,212,0.0,0.0,60,0.00,,,0.00,0,Wunderground v.1.15,2013-06-23 19:16:00,
2013-06-23 22:25:00,80.1,65.4,29.80,SSW,212,0.0,0.0,61,0.00,,,0.00,0,Wunderground v.1.15,2013-06-23 19:25:00,
2013-06-23 22:35:00,80.0,65.8,29.80,SSW,212,0.0,0.0,62,0.00,,,0.00,0,Wunderground v.1.15,2013-06-23 19:35:00,
2013-06-23 22:46:00,79.9,66.2,29.80,SSW,212,0.0,0.0,63,0.00,,,0.00,0,Wunderground v.1.15,2013-06-23 19:46:00,
2013-06-23 22:55:00,79.8,65.6,29.80,SSW,212,0.0,0.0,62,0.00,,,0.00,0,Wunderground v.1.15,2013-06-23 19:55:00,
2013-06-23 23:05:00,80.2,65.5,29.80,SSW,212,0.0,0.0,61,0.00,,,0.00,0,Wunderground v.1.15,2013-06-23 20:05:00,
2013-06-23 23:16:00,80.2,65.5,29.80,SSW,212,0.0,0.0,61,0.00,,,0.00,0,Wunderground v.1.15,2013-06-23 20:16:00,
2013-06-23 23:25:00,80.2,66.0,29.80,SSW,212,0.0,0.0,62,0.00,,,0.00,0,Wunderground v.1.15,2013-06-23 20:25:00,
2013-06-23 23:35:00,80.3,67.5,29.80,SSW,212,0.0,0.0,65,0.00,,,0.00,0,Wunderground v.1.15,2013-06-23 20:35:00,
2013-06-23 23:46:00,80.1,67.3,29.80,SSW,212,0.0,0.0,65,0.00,,,0.00,0,Wunderground v.1.15,2013-06-23 20:46:00,
2013-06-23 23:55:00,79.9,67.5,29.80,SSW,212,0.0,0.0,66,0.00,,,0.00,0,Wunderground v.1.15,2013-06-23 20:55:00,